Location: Newark
(43.6583°N, 1.6617°E)
Time: 23:28:03
(UTC+00:00)

A-11 Canister half - All Passes

Search period start: 21 August 2019 00:00
Search period end: 31 August 2019 00:00
Orbit: 1514 x 1686 km, 47.2° (Epoch: 20 August)

Date Brightness Start Highest point End Pass type
(mag) Time Alt. Az. Time Alt. Az. Time Alt. Az.
21 Aug - 01:03:50 10° WNW 01:13:01 44° SW 01:22:24 10° SSE visible
21 Aug - 03:13:44 10° WSW 03:16:04 11° WSW 03:18:25 10° SW visible
21 Aug - 16:23:06 10° S 16:30:45 30° SE 16:38:36 10° ENE daylight
21 Aug - 18:25:13 10° SW 18:34:36 77° SSE 18:44:23 10° ENE daylight
21 Aug - 20:30:18 10° W 20:39:54 73° N 20:49:53 10° E visible
21 Aug - 22:35:41 10° WNW 22:45:31 87° NNE 22:55:40 10° ESE visible
22 Aug - 00:40:52 10° WNW 00:50:08 46° SW 00:59:36 10° SSE visible
22 Aug - 02:49:44 10° W 02:53:16 12° WSW 02:56:49 10° SW visible
22 Aug - 16:00:30 10° S 16:07:56 28° SE 16:15:31 10° ENE daylight
22 Aug - 18:02:21 10° SW 18:11:42 74° SSE 18:21:24 10° ENE daylight
22 Aug - 20:07:21 10° W 20:16:55 73° N 20:26:53 10° E visible
22 Aug - 22:12:45 10° WNW 22:22:33 85° NNE 22:32:41 10° ESE visible
23 Aug - 00:17:54 10° WNW 00:27:14 49° SW 00:36:47 10° SSE visible
23 Aug - 02:26:05 10° W 02:30:27 14° WSW 02:34:51 10° SSW visible
23 Aug - 15:37:56 10° S 15:45:07 26° SE 15:52:26 10° ENE daylight
23 Aug - 17:39:30 10° SW 17:48:47 71° SSE 17:58:27 10° ENE daylight
23 Aug - 19:44:24 10° W 19:53:56 74° N 20:03:52 10° ENE visible
23 Aug - 21:49:49 10° WNW 21:59:35 83° NNE 22:09:42 10° ESE visible
23 Aug - 23:54:56 10° WNW 00:04:20 51° SW 00:13:58 10° SSE visible
24 Aug - 02:02:37 10° W 02:07:38 15° WSW 02:12:42 10° SSW visible
24 Aug - 15:15:25 10° S 15:22:18 24° SE 15:29:19 10° E daylight
24 Aug - 17:16:39 10° SW 17:25:53 68° SSE 17:35:28 10° ENE daylight
24 Aug - 19:21:27 10° W 19:30:58 75° N 19:40:53 10° ENE visible
24 Aug - 21:26:53 10° WNW 21:36:37 82° NNE 21:46:42 10° ESE visible
24 Aug - 23:31:59 10° WNW 23:41:26 54° SW 23:51:08 10° SE visible
25 Aug - 01:39:16 10° W 01:44:49 17° SW 01:50:26 10° SSW visible
25 Aug - 14:52:55 10° S 14:59:30 22° SE 15:06:11 10° E daylight
25 Aug - 16:53:50 10° SW 17:03:00 66° SSE 17:12:30 10° ENE daylight
25 Aug - 18:58:31 10° W 19:08:00 76° N 19:17:53 10° ENE visible
25 Aug - 21:03:57 10° WNW 21:13:39 80° NNE 21:23:42 10° ESE visible
25 Aug - 23:09:03 10° WNW 23:18:32 57° SW 23:28:17 10° SE visible
26 Aug - 01:15:59 10° W 01:21:59 18° SW 01:28:05 10° SSW visible
26 Aug - 14:30:28 10° S 14:36:42 20° SE 14:43:01 10° E daylight
26 Aug - 16:31:00 10° SW 16:40:07 63° SE 16:49:32 10° ENE daylight
26 Aug - 18:35:35 10° W 18:45:02 77° N 18:54:53 10° ENE daylight
26 Aug - 20:41:02 10° WNW 20:50:41 79° NNE 21:00:42 10° E visible
26 Aug - 22:46:07 10° WNW 22:55:37 59° SW 23:05:25 10° SE visible
27 Aug - 00:52:45 10° W 00:59:10 19° SW 01:05:40 10° SSW visible
27 Aug - 14:08:03 10° SSE 14:13:54 19° SE 14:19:48 10° E daylight
27 Aug - 16:08:11 10° SW 16:17:13 60° SE 16:26:34 10° ENE daylight
27 Aug - 18:12:39 10° W 18:22:05 78° NNW 18:31:53 10° ENE daylight
27 Aug - 20:18:06 10° WNW 20:27:42 77° NNE 20:37:42 10° E visible
27 Aug - 22:23:11 10° WNW 22:32:43 62° SW 22:42:33 10° SE visible
28 Aug - 00:29:35 10° W 00:36:19 21° SW 00:43:12 10° S visible
28 Aug - 13:45:43 10° SSE 13:51:06 17° SE 13:56:33 10° E daylight
28 Aug - 15:45:23 10° SW 15:54:21 57° SE 16:03:35 10° ENE daylight
28 Aug - 17:49:43 10° WSW 17:59:07 79° NNW 18:08:54 10° ENE daylight
28 Aug - 19:55:10 10° WNW 20:04:45 76° N 20:14:41 10° E visible
28 Aug - 22:00:15 10° WNW 22:09:48 65° SSW 22:19:40 10° SE visible
29 Aug - 00:06:26 10° W 00:13:29 23° SW 00:20:41 10° S visible
29 Aug - 13:23:26 10° SSE 13:28:20 16° SE 13:33:14 10° E daylight
29 Aug - 15:22:36 10° SW 15:31:29 54° SE 15:40:38 10° ENE daylight
29 Aug - 17:26:47 10° WSW 17:36:10 80° NNW 17:45:56 10° ENE daylight
29 Aug - 19:32:14 10° WNW 19:41:46 75° N 19:51:41 10° E visible
29 Aug - 21:37:19 10° WNW 21:46:53 67° SSW 21:56:46 10° SE visible
29 Aug - 23:43:20 10° W 23:50:39 24° SW 23:58:08 10° S visible
30 Aug - 13:01:15 10° SSE 13:05:32 14° ESE 13:09:50 10° E daylight
30 Aug - 14:59:49 10° SSW 15:08:37 51° SE 15:17:40 10° ENE daylight
30 Aug - 17:03:52 10° WSW 17:13:14 82° NNW 17:22:57 10° ENE daylight
30 Aug - 19:09:18 10° WNW 19:18:48 74° N 19:28:40 10° E visible
30 Aug - 21:14:24 10° WNW 21:23:58 70° SSW 21:33:51 10° SE visible
30 Aug - 23:20:15 10° WNW 23:27:49 26° SW 23:35:33 10° S visible
